Tracking 27428 objects as of 31-May-2023
HD Live streaming from Space Station
objects crossing your sky now

ONEWEB-0456

Track ONEWEB-0456 now!
10-day predictions
ONEWEB-0456 is classified as:


NORAD ID: 51646
Int'l Code: 2022-012AA
Perigee: 1,227.4 km
Apogee: 1,230.2 km
Inclination: 87.9 °
Period: 109.9 minutes
Semi major axis: 7599 km
RCS: Unknown
Launch date: February 10, 2022
Source: United Kingdom (UK)
Launch site: FRENCH GUIANA (FRGUI)
Your satellite tracking list
Your tracking list is empty




NASA's NSSDC Master Catalog

Two Line Element Set (TLE):
1 51646U 22012AA  23151.05038506  .00000561  00000-0  15703-2 0  9998
2 51646  87.8817 257.3653 0001836  90.3591 269.7747 13.10378748 64856
Source of the keplerian elements: AFSPC